CAPE
976 861 760 1197 13 10 23 18 31 26 25 21 12 15 32 80 0 0 7 65 214 376 644 766 962 1067 1056 1036 1034 789 617 649 621 487 403 381 382 411 432 360 331 475 620 688 764 803 778 1055 794
986 923 1257 1848 15 15 71 133 58 41 73 11 70 101 53 24 53 3 23 155 329 582 446 686 940 777 601 774 1040 842 693 795 642 676 657 658 643 684 630 652 692 709 770 711 782 1005 1074 1095 909
1574 2022 1915 660 0 0 73 72 43 26 0 0 71 189 140 90 32 5 112 218 523 447 632 813 786 781 938 1037 766 612 699 787 730 913 678 693 751 747 769 814 919 910 858 783 920 1026 1257 1028 1158
1688 2277 1760 0 0 0 80 28 54 1 0 0 1 0 195 238 53 132 158 182 519 564 659 760 655 748 1095 1026 891 997 865 872 931 949 880 750 672 827 828 675 667 661 853 1070 973 1041 979 751 748
718 848 0 0 0 77 35 0 0 0 16 3 0 9 81 151 171 174 179 90 410 537 1038 512 635 995 1418 1194 556 680 947 1147 924 403 1046 874 807 508 686 1032 1128 1089 1012 1203 1099 1161 848 487 349
131 362 0 0 4 35 1 15 96 3 106 25 0 0 89 210 172 204 115 54 457 508 1183 919 1339 1327 1373 1247 612 769 1221 1049 1170 1036 912 937 1092 1165 1015 1025 1050 1191 1191 1082 1043 1147 1035 581 303
98 25 0 0 9 15 7 59 39 9 0 0 0 0 206 252 194 135 48 50 270 755 1155 1590 1586 1502 1458 1107 860 686 1114 1104 1257 1320 1078 1136 1044 930 1132 1135 987 987 1198 1351 1227 932 787 358 209
81 8 0 18 0 0 57 72 104 112 54 27 3 0 0 272 253 287 310 272 339 754 827 1090 1349 1332 1324 803 1170 927 1367 1542 1200 1165 1128 1099 1007 1043 630 593 1075 1262 1167 1256 1159 1051 975 644 264
171 38 15 29 22 36 53 57 122 184 25 100 160 64 34 322 350 573 378 405 289 478 859 1145 1058 1052 744 526 1142 1099 1152 1321 1403 1145 1034 815 685 874 919 940 966 1051 1179 1236 1087 963 1307 1232 581
207 154 95 179 81 31 32 79 167 200 85 87 114 154 242 371 596 409 543 539 393 301 677 828 710 466 455 751 1020 787 728 784 910 905 768 398 361 393 583 817 882 925 1068 724 1143 1137 881 876 452
165 103 220 25 117 42 14 126 202 209 125 114 22 236 273 437 622 579 684 509 229 178 425 617 362 482 332 436 636 651 688 986 803 554 460 385 407 461 673 702 586 565 449 408 571 336 0 90 98
92 22 243 128 30 52 151 231 302 225 232 118 120 304 315 418 675 727 612 355 191 101 129 329 176 173 132 448 508 223 351 515 405 457 507 532 394 675 694 778 608 637 185 349 230 311 338 137 122
51 168 215 285 273 132 315 244 253 303 103 62 208 437 394 485 663 739 658 461 266 27 4 56 6 69 321 550 584 470 162 275 312 322 395 608 613 622 640 398 450 527 360 175 239 289 299 262 192
174 137 69 206 195 247 199 205 247 127 26 1 226 415 512 625 769 698 567 484 303 205 85 115 307 295 422 643 872 494 797 865 857 681 484 663 624 424 561 535 669 831 684 489 371 235 116 117 188
34 3 116 135 14 45 98 321 234 133 62 2 7 301 592 664 642 411 387 268 182 256 300 420 449 547 648 597 705 351 746 769 927 957 902 917 717 554 816 630 749 789 972 839 600 461 463 266 240
13 28 69 65 0 107 3 35 233 176 154 83 5 19 12 82 211 224 244 176 125 170 284 371 528 641 762 767 713 599 574 732 873 984 959 934 847 880 913 717 696 820 709 641 683 300 432 102 168
28 6 25 61 40 140 69 75 180 201 194 149 98 22 96 114 15 46 153 111 75 185 326 454 652 734 762 710 849 955 793 661 609 673 590 987 1091 1058 929 943 730 731 95 75 86 35 24 56 190
0 10 9 17 134 184 96 66 153 135 190 176 116 129 145 167 151 21 75 58 90 274 458 562 743 789 676 903 756 857 908 1102 873 801 825 1298 1164 1369 874 1007 731 614 327 0 0 0 0 44 220
0 13 0 3 199 136 102 30 72 90 137 152 107 102 143 163 177 59 52 34 113 350 532 640 645 611 518 722 577 624 785 1120 1015 948 825 1048 133 966 1080 1007 911 696 85 0 0 0 0 97 134
0 0 0 15 93 101 60 26 57 74 200 172 155 123 164 164 60 55 99 84 110 304 506 589 579 635 448 343 289 548 736 894 949 818 517 772 469 1216 1318 981 996 386 32 0 0 0 0 0 0
0 0 0 34 39 82 13 2 214 179 186 294 196 152 142 143 108 84 139 177 164 325 435 557 577 582 348 250 442 653 885 1408 1446 1111 701 681 935 1311 1338 912 839 217 60 16 11 0 0 0 0
0 0 0 3 41 12 35 5 7 212 230 405 549 342 162 124 106 53 137 258 279 323 387 532 520 539 531 484 548 379 391 809 1137 1288 1103 1230 1631 1309 1464 1112 160 128 51 33 42 0 0 0 0
0 0 0 0 16 1 0 1 0 96 172 209 546 584 532 201 188 69 98 222 314 333 313 370 484 511 574 593 709 758 552 750 1018 1016 1063 882 1185 1373 1484 1235 333 107 84 173 42 0 0 0 0
0 0 0 0 11 33 5 0 0 114 240 179 177 356 496 477 276 125 56 173 325 292 302 325 444 439 522 585 751 785 582 901 1061 813 559 325 1251 1359 1444 1040 428 172 188 183 36 0 0 0 0
0 0 0 7 61 14 0 0 0 24 297 252 330 390 343 485 467 250 166 101 252 244 261 373 477 449 500 588 803 834 746 869 960 677 298 191 1126 1385 1515 1047 544 254 223 161 93 1 0 0 0
0 0 0 0 0 0 0 0 0 0 146 401 360 362 259 382 483 450 284 213 184 202 207 241 588 537 569 650 836 940 861 929 1000 887 759 511 895 1231 1411 1250 617 275 251 264 57 0 0 0 0
0 0 0 0 0 0 0 0 0 40 186 124 0 125 273 214 392 531 446 391 247 248 281 306 375 588 603 666 812 946 1106 985 1078 1071 853 773 437 915 1366 1283 845 430 300 265 69 0 0 0 0
0 0 0 0 0 0 0 0 0 30 186 198 209 179 186 103 545 648 610 536 459 392 386 342 333 450 694 686 741 792 917 1204 1529 1394 1096 750 289 607 1363 1232 950 588 469 286 7 0 0 0 0
0 0 0 0 0 0 0 0 18 97 162 315 542 411 450 453 536 645 685 652 592 627 517 557 499 471 600 842 819 862 852 940 1267 1632 1520 1327 951 705 1381 1076 1087 796 453 364 38 0 0 0 0
0 0 0 0 0 0 0 6 188 173 383 319 123 64 311 634 579 547 579 651 722 875 883 831 784 744 655 918 1093 1183 1213 1300 1254 1294 1602 1596 1500 1225 1481 1126 1171 1116 647 359 151 2 0 0 0
CIN
-414 -386 -371 -234 -11 -20 -46 -47 -47 -44 -77 -103 -125 -89 -114 -168 0 0 -299 -89 -12 -1 -2 -1 0 0 0 0 0 -2 -9 0 -1 0 -8 -6 -12 -13 -22 -19 -13 -11 -12 -13 -7 -10 -16 -6 -18
-424 -399 -284 -130 -82 -102 -53 -54 -70 -73 -98 -102 -122 -114 -139 -164 -217 -102 -263 -64 -10 -4 -16 -3 -1 -10 -7 -3 0 -2 0 0 -1 0 0 0 0 0 -18 -7 -7 -2 -3 -8 -9 -3 -7 -8 -14
-273 -222 -97 -43 0 0 -63 -127 -134 -104 0 0 -146 -153 -174 -199 -267 -70 -186 -109 -26 -31 -14 -7 -12 -11 -2 -1 -1 0 -1 -1 -4 0 0 0 0 0 -1 -8 -1 0 0 -5 -2 0 -2 -17 -5
-263 -163 -123 0 0 0 -41 -121 -125 -3 0 0 -4 -2 -173 -156 -208 -191 -173 -145 -59 -40 -33 -27 -32 -13 0 0 0 0 -5 -8 0 0 0 0 0 0 0 -18 -14 -10 0 0 0 0 -8 -10 -8
-320 -140 0 0 0 -54 -78 0 0 0 -161 -45 0 -72 -209 -131 -154 -183 -165 -200 -97 -72 -13 -51 -41 -9 0 0 -19 -13 0 0 0 -12 0 0 -1 -1 -7 0 0 0 0 0 0 0 -9 -7 -26
-129 -162 0 0 -142 -94 -33 -99 -79 -41 -166 -94 0 0 -201 -157 -181 -163 -187 -264 -106 -93 -14 -31 -3 -3 -1 0 -25 -6 -2 0 0 0 0 -1 0 0 -1 0 0 0 0 0 0 -1 -2 -3 -13
-151 -143 0 0 -130 -101 -43 -99 -78 -170 0 0 0 0 -217 -178 -189 -207 -242 -232 -127 -55 -30 -9 -7 -10 -1 -13 -13 -17 -1 0 0 0 0 0 0 -4 0 0 0 0 0 0 0 0 -2 -4 -6
-259 -202 -6 -183 -1 0 -146 -89 -107 -87 -147 -157 -9 0 0 -215 -203 -147 -136 -126 -109 -67 -66 -53 -33 -36 -8 -31 -13 -14 0 0 -4 -1 0 0 -1 -3 -16 -14 0 0 0 0 0 -1 -1 -6 -3
-352 -183 -145 -134 -149 -153 -131 -106 -136 -127 -209 -167 -162 -193 -201 -220 -174 -96 -121 -98 -124 -106 -72 -50 -54 -49 -71 -87 -10 -3 -10 -2 -1 -10 -7 -23 -24 -17 -3 -2 -1 0 0 0 0 -1 0 -1 -5
-218 -153 -115 -174 -157 -148 -146 -146 -127 -111 -176 -172 -177 -173 -222 -202 -127 -159 -126 -122 -152 -179 -114 -91 -91 -113 -108 -63 -37 -47 -46 -36 -30 -37 -38 -67 -65 -63 -39 -12 -8 -8 -5 -11 -5 0 0 -1 -15
-151 -153 -125 -170 -153 -216 -222 -146 -138 -120 -169 -186 -175 -182 -213 -187 -122 -122 -128 -160 -209 -225 -171 -133 -160 -120 -134 -105 -79 -78 -65 -39 -49 -68 -72 -79 -78 -72 -57 -45 -44 -37 -32 -37 -32 -23 0 -41 -42
-132 -258 -174 -111 -269 -188 -149 -162 -141 -147 -130 -251 -229 -206 -221 -181 -127 -111 -123 -168 -228 -275 -240 -170 -203 -192 -192 -112 -102 -148 -118 -94 -96 -86 -98 -82 -81 -68 -51 -54 -59 -48 -59 -62 -70 -54 -31 -38 -46
-210 -160 -173 -225 -197 -238 -177 -155 -154 -157 -199 -296 -269 -216 -202 -166 -132 -111 -115 -149 -195 -362 -408 -276 -355 -283 -164 -123 -98 -109 -154 -114 -110 -97 -94 -80 -70 -64 -56 -55 -68 -53 -69 -76 -67 -54 -42 -42 -50
-155 -200 -204 -204 -215 -219 -176 -150 -127 -190 -243 -88 -255 -249 -176 -140 -109 -101 -106 -135 -169 -209 -261 -209 -162 -171 -156 -118 -93 -103 -81 -75 -76 -74 -80 -75 -68 -68 -61 -60 -59 -51 -54 -61 -65 -53 -50 -53 -58
-243 -233 -219 -233 -315 -255 -245 -104 -128 -250 -244 -51 -301 -289 -182 -144 -105 -111 -109 -142 -178 -191 -227 -191 -140 -145 -130 -115 -94 -112 -93 -75 -59 -61 -49 -40 -44 -51 -58 -49 -39 -44 -45 -40 -46 -45 -39 -52 -57
-160 -190 -132 -255 -19 -274 -107 -142 -189 -276 -252 -252 -50 -271 -359 -296 -228 -194 -128 -147 -165 -178 -190 -189 -156 -134 -113 -85 -82 -92 -100 -94 -69 -64 -64 -48 -43 -48 -42 -41 -36 -40 -43 -39 -36 -49 -41 -49 -55
-223 -201 -169 -130 -269 -216 -218 -164 -240 -299 -266 -234 -248 -238 -229 -208 -332 -301 -215 -202 -207 -182 -175 -170 -137 -119 -115 -104 -77 -62 -91 -101 -91 -90 -92 -45 -42 -43 -48 -35 -46 -50 -54 -65 -41 -28 -38 -47 -41
0 -180 -179 -172 -177 -217 -165 -165 -277 -295 -259 -234 -239 -276 -221 -214 -203 -336 -259 -225 -189 -176 -175 -153 -134 -120 -123 -88 -85 -83 -85 -73 -83 -75 -83 -51 -63 -36 -46 -39 -52 -51 -60 0 0 0 0 -75 -48
0 -195 0 -164 -148 -134 -156 -188 -184 -270 -261 -269 -269 -266 -246 -234 -207 -258 -250 -252 -190 -149 -140 -144 -122 -131 -150 -124 -112 -102 -72 -67 -71 -76 -72 -70 -171 -52 -41 -45 -43 -57 -63 0 0 0 0 -45 -64
0 0 0 -195 -189 -141 -149 -151 -221 -240 -224 -264 -244 -252 -224 -229 -282 -275 -228 -262 -190 -144 -151 -152 -143 -139 -136 -143 -120 -88 -68 -76 -77 -91 -111 -92 -97 -49 -38 -50 -42 -63 -114 0 0 0 0 0 0
0 0 0 -158 -188 -183 -146 -81 -130 -223 -271 -252 -274 -252 -271 -218 -230 -275 -257 -253 -240 -199 -183 -157 -156 -143 -149 -163 -135 -120 -91 -64 -56 -80 -93 -99 -68 -45 -41 -52 -51 -90 -174 -145 -99 0 0 0 0
0 0 0 -143 -173 -115 -140 -36 -22 -138 -227 -239 -242 -242 -256 -248 -244 -304 -278 -240 -248 -218 -224 -196 -196 -182 -160 -141 -120 -124 -108 -68 -53 -47 -63 -68 -56 -51 -38 -49 -125 -127 -226 -200 -179 0 0 0 0
0 0 0 0 -219 -11 -2 -44 0 -255 -158 -217 -203 -214 -242 -254 -234 -275 -283 -266 -245 -267 -255 -263 -229 -217 -184 -163 -131 -108 -124 -104 -82 -88 -65 -86 -68 -48 -38 -57 -110 -160 -194 -160 -189 -2 0 0 0
0 0 0 0 -230 -93 -60 0 0 -89 -59 -102 -196 -225 -236 -232 -247 -240 -302 -293 -286 -309 -295 -330 -272 -242 -237 -196 -151 -118 -126 -87 -92 -127 -113 -155 -66 -57 -53 -96 -128 -167 -156 -143 -224 0 0 0 0
0 0 0 -98 -136 -95 0 0 0 -131 -114 -98 -100 -103 -195 -235 -251 -221 -284 -318 -295 -314 -317 -351 -298 -272 -272 -230 -179 -153 -119 -105 -88 -112 -146 -173 -88 -69 -68 -104 -125 -151 -146 -162 -210 -38 0 0 0
0 0 0 0 0 0 0 0 0 0 -199 -151 -156 -114 -201 -202 -267 -231 -240 -268 -303 -315 -352 -338 -303 -295 -278 -265 -201 -174 -158 -122 -111 -115 -118 -137 -91 -67 -79 -86 -124 -142 -140 -130 -192 0 0 0 0
0 0 0 0 0 0 0 0 0 -261 -175 -187 0 -152 -154 -158 -211 -235 -222 -257 -312 -306 -328 -314 -316 -304 -301 -255 -238 -208 -179 -163 -121 -129 -164 -153 -177 -116 -91 -92 -107 -141 -134 -124 -155 0 0 0 0
0 0 0 0 0 0 0 0 0 -145 -133 -159 -146 -186 -208 -209 -208 -262 -195 -198 -279 -300 -293 -349 -349 -280 -276 -282 -270 -273 -245 -200 -142 -144 -153 -173 -216 -173 -102 -103 -108 -131 -126 -127 -39 0 0 0 0
0 0 0 0 0 0 0 0 -273 -271 -295 -226 -166 -223 -188 -212 -237 -254 -209 -184 -262 -316 -319 -308 -334 -293 -315 -298 -275 -276 -286 -274 -235 -175 -160 -146 -168 -191 -112 -123 -105 -113 -140 -144 -203 0 0 0 0
0 0 0 0 0 0 0 -39 -488 -445 -239 -237 -330 -391 -328 -291 -249 -238 -210 -221 -212 -253 -298 -344 -332 -275 -285 -286 -273 -250 -258 -271 -280 -258 -211 -182 -155 -171 -129 -156 -120 -102 -133 -162 -186 -38 0 0 0
Wind_Speed
24 23 22 20 18 17 12 13 20 24 22 21 29 21 22 18 25 22 37 35 34 33 30 31 19 24 22 31 32 29 31 30 27 32 32 31 31 30 29 28 27 26 25 24 23 23 23 22 22
22 23 20 19 28 25 12 14 20 17 20 26 24 25 19 19 15 32 32 34 35 33 29 27 27 15 29 27 22 25 31 25 28 30 30 29 28 28 27 26 25 24 23 22 21 21 21 21 20
18 18 17 15 21 28 23 20 27 26 21 23 21 17 18 20 18 37 34 35 34 34 32 32 32 30 28 29 29 26 29 30 29 28 28 28 27 26 25 25 24 22 21 20 20 20 20 19 19
16 15 15 22 22 16 26 26 27 27 14 17 24 18 17 24 31 31 34 33 33 33 32 32 31 30 29 29 28 27 28 28 28 27 27 26 26 25 24 24 23 22 20 19 19 19 19 19 19
15 15 18 21 24 23 26 26 20 19 16 23 22 23 24 22 9 28 32 32 31 32 31 30 29 28 27 27 27 27 26 26 26 26 26 26 25 24 23 22 22 22 21 20 19 19 19 20 20
21 17 29 32 29 27 22 24 25 20 22 25 24 28 25 23 25 30 31 31 30 31 30 28 27 27 26 26 26 26 25 25 25 25 25 25 24 23 23 22 21 21 20 20 20 19 19 20 20
27 22 20 28 28 25 22 24 24 26 25 25 28 26 24 29 29 29 28 27 29 29 28 28 27 26 25 25 25 25 24 24 24 24 24 24 23 22 22 21 20 20 19 19 19 19 19 19 20
24 23 17 17 21 20 22 17 23 25 16 26 27 23 27 32 29 26 24 25 27 27 27 26 26 26 25 25 24 24 24 24 23 23 22 22 22 21 21 20 19 19 18 18 17 18 18 19 20
20 23 22 18 17 18 22 20 22 17 26 22 18 22 27 29 27 23 26 27 27 27 27 27 27 26 25 24 24 23 23 23 22 21 21 21 21 20 20 19 18 18 17 16 17 18 17 18 19
20 21 19 17 19 21 21 21 23 20 24 18 12 17 24 28 29 28 29 29 29 28 28 27 26 26 25 24 24 23 22 22 22 22 21 20 20 20 18 18 17 16 15 14 15 16 16 16 17
18 21 16 14 18 13 16 24 17 23 21 21 24 25 27 27 27 28 28 28 28 29 28 28 27 25 25 24 24 23 22 22 21 21 21 20 19 18 17 16 15 14 14 14 14 14 15 17 17
19 15 18 14 18 12 17 15 19 23 17 24 26 27 28 27 27 27 27 27 27 28 28 27 28 26 25 23 22 22 22 21 21 20 20 18 18 17 16 15 14 13 14 14 13 13 14 16 16
17 19 15 14 17 14 15 16 15 20 21 25 27 28 28 28 28 28 26 25 25 26 27 25 26 23 22 21 21 20 20 21 20 20 19 18 17 16 15 14 14 14 14 14 13 13 13 15 17
17 19 18 19 20 17 15 13 18 20 25 26 26 27 28 28 27 27 26 24 24 23 25 25 24 19 18 19 20 19 18 20 19 19 18 17 16 15 14 14 14 14 13 14 13 13 13 14 16
22 20 17 18 19 18 15 15 16 23 24 24 25 26 26 26 27 27 28 25 23 21 22 23 23 19 18 17 19 20 19 19 19 18 17 16 15 13 14 14 15 16 15 14 13 13 13 14 16
20 18 18 17 18 17 16 14 18 21 23 23 22 23 24 25 25 25 27 25 24 21 21 22 22 19 16 19 19 20 21 19 19 18 17 15 15 14 14 14 15 16 16 14 14 14 14 13 15
15 16 15 16 19 15 16 16 15 20 20 21 21 21 23 23 22 24 26 25 25 23 20 20 20 19 16 17 14 13 18 18 16 16 17 15 16 15 15 15 16 15 16 17 16 16 16 17 17
13 14 14 13 16 12 15 16 17 17 18 19 20 21 21 22 22 21 23 23 24 23 21 19 19 17 16 14 13 7 19 19 17 19 17 15 16 15 14 15 15 16 15 16 15 15 15 16 17
12 12 9 14 14 13 13 14 16 13 16 21 20 21 19 21 22 22 21 20 21 22 21 20 20 20 16 17 20 11 8 20 15 20 19 16 14 13 14 15 16 16 15 15 15 15 15 15 16
8 10 18 17 15 14 11 14 15 16 18 22 22 21 20 19 19 20 21 20 22 22 21 22 21 21 20 20 20 19 6 10 15 19 19 18 14 13 13 13 13 13 14 16 17 15 14 13 13
8 5 12 5 12 8 17 15 9 15 16 21 21 21 21 20 19 19 21 22 21 21 22 22 21 21 20 20 18 7 6 12 12 21 16 15 12 12 12 13 14 13 13 14 15 13 13 12 11
9 2 9 8 10 14 12 13 16 16 16 19 16 21 21 21 20 18 22 23 23 22 22 22 20 20 20 19 19 17 16 15 15 8 13 10 12 12 12 13 14 13 13 13 14 14 13 12 12
4 7 3 10 10 13 11 14 11 17 15 16 19 20 18 21 21 18 21 23 25 21 21 21 20 20 21 22 20 18 16 11 8 9 10 10 11 11 12 12 13 13 12 13 14 15 15 14 13
15 17 13 12 13 15 5 5 7 9 10 17 20 23 20 20 22 21 21 20 22 21 20 19 19 19 20 21 21 19 19 14 7 11 9 9 10 13 12 12 13 12 11 13 14 14 15 15 14
11 8 12 14 13 7 14 8 6 11 16 20 20 22 20 19 20 22 19 19 20 23 21 16 18 16 18 19 20 20 19 18 17 15 12 11 13 14 13 13 12 12 12 10 12 12 12 13 14
9 5 8 11 11 11 10 10 13 22 21 22 20 22 18 16 17 21 21 20 19 22 20 18 16 16 11 16 19 19 19 18 16 15 14 14 15 15 14 14 13 13 14 14 10 10 11 12 12
13 15 13 13 14 14 13 19 23 20 17 22 20 20 18 13 16 16 18 17 19 20 21 21 18 16 11 14 16 18 18 18 17 16 17 18 16 15 14 14 14 14 15 16 15 13 10 11 11
14 9 16 16 16 16 15 18 15 12 15 10 12 14 11 18 16 15 15 15 18 20 20 17 18 18 12 16 18 18 19 18 17 15 16 17 15 13 12 13 13 14 14 15 15 13 10 10 11
12 14 12 8 9 12 15 16 15 16 13 14 12 13 14 11 8 15 15 17 15 12 14 17 19 18 16 17 20 17 17 17 18 17 17 17 14 11 11 11 12 11 13 14 14 13 11 10 10
13 12 10 11 12 13 15 19 18 8 7 11 19 15 16 14 10 10 14 17 16 12 14 18 16 18 19 19 18 20 16 14 15 17 18 15 14 11 10 9 9 9 10 11 11 11 10 9 9
Wind_Direction
106 103 101 109 128 133 148 147 137 120 136 149 126 141 146 161 133 103 135 136 145 144 149 142 164 156 156 134 128 89 100 93 87 117 119 123 123 124 121 120 122 120 130 130 120 121 113 108 116
115 105 109 116 80 60 152 159 140 144 139 99 135 130 160 159 184 140 126 126 129 146 156 155 152 166 140 146 158 103 106 82 96 124 122 129 130 129 125 126 129 129 132 138 132 127 120 113 122
123 120 121 133 113 89 114 135 108 114 134 149 151 173 165 163 181 132 136 124 123 131 142 141 135 135 141 136 121 144 126 117 108 134 131 132 132 132 125 125 133 133 137 137 138 131 125 120 123
128 125 130 114 112 135 100 110 90 81 158 170 135 172 173 159 156 159 121 121 123 128 129 128 124 125 125 123 124 134 127 125 122 127 132 136 128 128 129 124 130 129 127 132 134 131 129 118 116
131 132 117 115 100 117 96 101 131 118 157 128 154 153 151 179 69 109 122 124 123 129 136 131 132 126 128 124 123 133 136 132 131 132 130 128 123 116 121 124 119 123 118 115 120 129 132 109 105
106 125 90 75 94 92 116 107 77 30 78 95 92 118 154 106 108 121 124 128 129 132 138 134 134 137 133 137 128 134 140 139 137 131 130 119 123 119 113 122 117 117 116 113 114 123 122 123 113
79 106 113 78 91 107 120 115 88 78 79 129 116 143 162 125 122 121 121 122 132 138 134 144 149 143 146 136 129 130 131 138 131 135 130 127 126 123 119 122 117 111 121 125 122 127 123 130 124
83 106 120 116 106 110 123 137 109 88 159 98 101 151 133 145 126 117 113 120 131 137 145 142 146 149 151 140 132 138 134 134 124 131 121 114 133 125 127 130 133 130 118 121 131 148 133 143 129
114 95 102 118 125 113 122 116 129 139 105 149 147 123 129 123 122 112 122 136 142 149 156 155 155 153 152 153 148 141 137 141 137 117 126 117 128 136 150 141 144 131 121 127 143 153 142 136 135
80 86 88 123 133 119 121 111 122 126 120 158 20 81 106 120 129 128 134 143 153 154 159 159 157 159 151 156 153 147 144 142 151 137 134 125 138 144 155 155 143 134 132 137 141 141 146 151 135
90 81 129 138 145 157 156 93 145 110 126 129 107 112 122 125 131 135 141 146 144 154 162 165 161 156 153 151 146 147 147 146 157 159 155 139 143 149 152 163 156 153 133 152 161 149 130 162 145
83 109 117 172 143 176 154 146 120 125 148 131 124 122 128 132 135 139 142 145 146 153 155 164 167 157 148 141 131 136 134 157 158 158 159 163 152 158 140 149 156 148 127 145 159 167 168 157 157
92 104 131 152 138 197 168 145 148 141 121 114 118 127 134 140 145 151 148 144 139 147 153 150 154 146 138 130 134 126 129 150 152 158 162 149 146 144 125 141 143 142 139 138 151 155 165 169 171
122 107 125 123 128 173 190 178 127 121 115 115 117 128 138 146 150 152 151 148 147 143 151 150 150 131 125 131 140 143 132 154 154 160 162 164 132 116 119 130 103 103 123 113 124 139 156 158 163
97 104 117 127 130 144 124 142 141 109 116 117 127 134 142 149 154 158 161 157 151 144 144 149 149 137 132 135 149 161 157 156 167 159 146 151 142 120 109 97 70 53 71 87 99 112 137 162 182
89 94 105 126 125 125 95 135 104 119 121 127 128 143 144 154 159 160 165 166 160 150 151 152 150 143 137 147 159 161 169 166 160 160 155 123 131 123 105 102 80 73 69 104 124 115 112 145 174
83 69 82 110 149 109 91 88 96 131 132 137 137 138 155 161 151 161 163 166 166 160 150 153 150 147 138 138 118 96 167 155 147 146 149 114 137 119 109 102 92 84 65 48 75 74 70 55 33
62 63 61 78 147 105 116 121 107 131 142 149 151 148 150 162 166 154 159 162 161 159 153 146 147 142 135 127 120 5 246 224 175 168 149 121 137 129 103 92 83 68 70 58 64 74 51 52 41
25 43 150 46 134 97 146 169 161 132 149 165 162 160 154 163 171 162 155 152 153 154 153 151 149 149 138 145 154 116 66 209 128 187 176 135 156 128 74 78 69 56 55 51 60 75 48 29 57
8 18 224 347 120 124 131 193 193 160 164 170 171 171 168 163 162 160 160 152 157 157 159 158 158 156 156 161 161 157 28 116 144 181 185 162 151 95 84 81 64 48 38 14 10 89 44 33 44
329 10 192 68 7 159 352 7 86 156 166 172 179 180 176 170 164 156 160 159 154 157 160 161 160 159 159 159 150 290 351 318 242 195 145 141 89 89 79 66 67 67 40 358 339 9 27 44 3
312 38 164 170 359 353 11 15 204 182 168 169 167 174 176 173 168 157 163 161 160 162 160 161 158 158 159 156 155 153 151 150 142 149 126 60 78 93 91 78 73 74 56 347 330 323 359 1 86
299 353 159 178 328 343 6 9 53 237 186 175 173 171 168 175 171 161 160 165 169 160 161 160 158 158 161 162 161 157 155 133 100 85 97 94 118 114 93 92 80 74 63 343 336 327 333 320 103
308 317 331 308 312 314 4 55 54 83 151 167 172 186 172 168 172 171 169 161 167 167 163 161 158 160 159 164 165 162 162 144 107 120 101 103 108 121 105 98 97 80 61 336 323 331 320 330 327
306 310 309 304 305 312 339 1 172 193 177 168 160 176 167 161 164 171 165 165 167 172 168 161 163 160 161 164 167 167 164 161 162 153 133 109 117 125 122 116 110 97 82 355 333 340 356 357 326
283 263 299 305 312 315 338 340 350 248 185 184 182 186 158 155 162 173 173 171 171 173 174 167 166 167 157 160 169 169 167 162 160 154 147 141 144 140 131 130 124 112 109 112 30 26 30 48 46
287 282 295 299 308 313 329 311 298 281 163 199 185 184 177 166 167 168 166 166 169 172 177 176 171 168 165 167 165 169 169 170 168 164 162 164 157 144 134 133 129 123 123 124 123 102 59 47 49
292 310 284 293 293 295 310 311 321 323 308 329 318 265 174 184 173 164 164 164 166 171 174 172 174 176 167 173 173 172 173 173 171 162 164 167 162 142 133 132 130 124 120 123 113 97 64 36 22
295 291 300 305 313 305 300 308 318 290 309 293 317 27 45 49 110 153 163 167 161 158 166 175 178 180 176 173 179 175 175 174 175 174 174 175 163 148 141 139 137 127 125 124 113 106 90 56 40
297 304 284 279 292 299 307 304 305 299 9 298 184 109 35 38 79 115 142 159 163 161 168 176 174 180 185 180 180 184 179 176 177 180 183 175 173 162 157 144 138 134 132 125 118 100 92 79 68